DW2149 Weather Reports


Display with metric or nautical units.
time (UTC)temp
F
wind
direction
speed
MPH
gust
MPH
rain 1hr
in
rain 24hr
in
rain mn
in
humidity
%
barometer
mb
20260503203728 63 209 1.0 5.0 0.00 0.00 0.00 70 1008.1
20260503203515 63 238 1.0 5.0 0.00 0.00 0.00 70 1008.1
20260503203314 64 231 1.0 5.0 0.00 0.00 0.00 69 1008.0
20260503203106 64 209 1.0 5.0 0.00 0.00 0.00 69 1008.1
20260503202858 64 222 1.0 5.0 0.00 0.00 0.00 68 1008.1
20260503202501 64 222 1.0 5.0 0.00 0.00 0.00 68 1008.1
20260503202249 64 219 1.0 5.0 0.00 0.00 0.00 68 1008.1
20260503201900 65 223 0.0 4.0 0.00 0.00 0.00 67 1008.1
20260503201653 65 228 0.0 3.0 0.00 0.00 0.00 67 1008.1
20260503201255 65 231 0.0 6.0 0.00 0.00 0.00 68 1008.1
20260503201046 65 231 1.0 6.0 0.00 0.00 0.00 67 1008.2
20260503200841 65 233 1.0 6.0 0.00 0.00 0.00 67 1008.2
20260503200632 65 246 1.0 6.0 0.00 0.00 0.00 66 1008.2
20260503200425 65 246 1.0 6.0 0.00 0.00 0.00 66 1008.1
20260503200223 65 242 1.0 6.0 0.00 0.00 0.00 66 1008.1
20260503200016 66 238 1.0 6.0 0.00 0.00 0.00 66 1008.2
20260503195808 66 238 1.0 6.0 0.00 0.00 0.00 66 1008.1
20260503195605 66 238 1.0 6.0 0.00 0.00 0.00 66 1008.2
20260503195355 66 237 1.0 6.0 0.00 0.00 0.00 65 1008.1
20260503195143 66 284 1.0 5.0 0.00 0.00 0.00 65 1008.1
20260503194748 67 224 1.0 6.0 0.00 0.00 0.00 64 1008.1
20260503194541 67 180 1.0 6.0 0.00 0.00 0.00 64 1008.1
20260503194330 67 180 2.0 6.0 0.00 0.00 0.00 63 1008.2
20260503194123 68 155 2.0 6.0 0.00 0.00 0.00 62 1008.1
20260503193910 68 211 2.0 8.0 0.00 0.00 0.00 62 1008.1
20260503193704 68 192 2.0 8.0 0.00 0.00 0.00 62 1008.0
20260503193501 69 160 2.0 8.0 0.00 0.00 0.00 60 1008.0
20260503193114 69 165 3.0 8.0 0.00 0.00 0.00 61 1008.0
20260503192912 69 157 3.0 8.0 0.00 0.00 0.00 61 1008.0
20260503192706 70 192 3.0 8.0 0.00 0.00 0.00 58 1008.1
20260503192458 70 234 3.0 8.0 0.00 0.00 0.00 57 1008.1
20260503192247 71 217 3.0 8.0 0.00 0.00 0.00 56 1007.9
20260503192039 71 219 3.0 8.0 0.00 0.00 0.00 57 1007.9
20260503191837 70 236 3.0 8.0 0.00 0.00 0.00 59 1007.8
20260503191631 71 205 3.0 8.0 0.00 0.00 0.00 57 1007.8
20260503191427 71 229 3.0 8.0 0.00 0.00 0.00 58 1007.9
20260503191036 71 227 2.0 8.0 0.00 0.00 0.00 55 1007.8
20260503190825 70 211 3.0 8.0 0.00 0.00 0.00 57 1007.8
20260503190618 70 215 3.0 8.0 0.00 0.00 0.00 56 1007.8
20260503190412 70 217 3.0 8.0 0.00 0.00 0.00 56 1007.8
20260503190203 70 202 2.0 8.0 0.00 0.00 0.00 58 1007.8
20260503190002 70 197 2.0 8.0 0.00 0.00 0.00 56 1007.9
20260503185614 70 221 2.0 6.0 0.00 0.00 0.00 58 1007.9
20260503185401 70 211 2.0 6.0 0.00 0.00 0.00 58 1007.9
20260503185158 69 209 2.0 7.0 0.00 0.00 0.00 60 1008.0
20260503184951 70 234 2.0 7.0 0.00 0.00 0.00 61 1008.0
20260503184750 70 214 2.0 7.0 0.00 0.00 0.00 61 1008.0
20260503184400 70 238 2.0 7.0 0.00 0.00 0.00 61 1008.1
20260503184150 70 208 3.0 7.0 0.00 0.00 0.00 63 1008.1
20260503183945 69 209 3.0 7.0 0.00 0.00 0.00 63 1008.2
20260503183741 69 213 3.0 7.0 0.00 0.00 0.00 62 1008.1
20260503183534 69 215 3.0 7.0 0.00 0.00 0.00 62 1008.1
20260503183331 69 213 3.0 7.0 0.00 0.00 0.00 61 1008.1
20260503183130 69 206 3.0 7.0 0.00 0.00 0.00 61 1008.2
20260503182928 69 221 3.0 7.0 0.00 0.00 0.00 62 1008.1
20260503182726 69 220 3.0 7.0 0.00 0.00 0.00 62 1008.2
20260503182513 69 232 2.0 7.0 0.00 0.00 0.00 61 1008.2
20260503182308 69 211 2.0 7.0 0.00 0.00 0.00 61 1008.2
20260503182102 69 209 1.0 7.0 0.00 0.00 0.00 60 1008.2
20260503181900 69 199 2.0 7.0 0.00 0.00 0.00 61 1008.2
20260503181651 69 198 2.0 7.0 0.00 0.00 0.00 59 1008.2
20260503181439 69 198 2.0 7.0 0.00 0.00 0.00 59 1008.2
20260503181231 69 214 1.0 7.0 0.00 0.00 0.00 58 1008.2
20260503181020 68 214 2.0 7.0 0.00 0.00 0.00 56 1008.2
20260503180809 68 224 1.0 7.0 0.00 0.00 0.00 59 1008.2
20260503180607 68 206 1.0 7.0 0.00 0.00 0.00 58 1008.2
20260503180354 67 206 1.0 7.0 0.00 0.00 0.00 59 1008.2
20260503180146 67 223 1.0 3.0 0.00 0.00 0.00 58 1008.1
20260503175938 67 223 1.0 3.0 0.00 0.00 0.00 58 1008.1
20260503175542 67 225 0.0 4.0 0.00 0.00 0.00 56 1008.1
20260503175329 66 226 0.0 4.0 0.00 0.00 0.00 58 1008.1
20260503175126 66 226 0.0 4.0 0.00 0.00 0.00 58 1008.2
20260503174552 66 227 0.0 3.0 0.00 0.00 0.00 59 1008.2
20260503174154 66 227 0.0 3.0 0.00 0.00 0.00 60 1008.1
20260503173943 66 227 0.0 3.0 0.00 0.00 0.00 61 1008.2
20260503173741 66 227 0.0 3.0 0.00 0.00 0.00 61 1008.1
20260503173539 66 227 0.0 0.0 0.00 0.00 0.00 60 1008.1
20260503173330 66 227 0.0 5.0 0.00 0.00 0.00 61 1008.1
20260503173118 66 227 0.0 5.0 0.00 0.00 0.00 61 1008.1
20260503172908 66 207 0.0 5.0 0.00 0.00 0.00 61 1008.1
20260503172658 65 207 0.0 5.0 0.00 0.00 0.00 61 1008.0
20260503172448 65 207 0.0 5.0 0.00 0.00 0.00 62 1008.0
20260503172101 65 207 0.0 5.0 0.00 0.00 0.00 62 1008.0
20260503171852 65 173 0.0 2.0 0.00 0.00 0.00 62 1008.0
20260503171642 65 135 0.0 2.0 0.00 0.00 0.00 63 1008.0
20260503171436 64 215 0.0 0.0 0.00 0.00 0.00 64 1008.0
20260503171226 64 215 1.0 5.0 0.00 0.00 0.00 63 1008.0
20260503171022 64 215 1.0 5.0 0.00 0.00 0.00 63 1008.0
20260503170809 64 215 2.0 5.0 0.00 0.00 0.00 63 1008.0
20260503170606 63 215 1.0 5.0 0.00 0.00 0.00 62 1008.0
20260503170402 63 214 1.0 5.0 0.00 0.00 0.00 63 1008.0
20260503170149 63 227 0.0 4.0 0.00 0.00 0.00 63 1007.9
20260503160149 55 242 0.0 2.0 0.00 0.00 0.00 82 1007.7
20260503150643 51 199 0.0 0.0 0.00 0.00 0.00 82 1007.5
20260503150442 51 199 0.0 0.0 0.00 0.00 0.00 82 1007.5
20260503140140 50 199 0.0 0.0 0.00 0.00 0.00 81 1007.3
20260503131328 50 199 0.0 0.0 0.00 0.00 0.00 81 1007.1
20260503131125 50 199 0.0 0.0 0.00 0.00 0.00 81 1007.1
20260503130919 50 199 0.0 0.0 0.00 0.00 0.00 81 1007.1
20260503130530 50 199 0.0 0.0 0.00 0.00 0.00 81 1007.1
20260503130319 50 199 0.0 0.0 0.00 0.00 0.00 82 1007.1
20260503130112 50 199 0.0 0.0 0.00 0.00 0.00 82 1007.0
20260503110711 49 199 0.0 0.0 0.00 0.00 0.00 79 1007.3
20260503110505 49 199 0.0 0.0 0.00 0.00 0.00 79 1007.3
20260503110303 49 199 0.0 0.0 0.00 0.00 0.00 79 1007.3
20260503100219 49 199 0.0 0.0 0.00 0.00 0.00 77 1007.4
20260503090138 50 199 0.0 0.0 0.00 0.00 0.00 76 1008.0
20260503081553 51 199 0.0 0.0 0.00 0.00 0.00 74 1008.0
20260503081351 51 199 0.0 0.0 0.00 0.00 0.00 74 1008.0
20260503080955 51 199 0.0 0.0 0.00 0.00 0.00 74 1008.1
20260503080745 52 199 0.0 0.0 0.00 0.00 0.00 74 1008.1
20260503080538 52 199 0.0 0.0 0.00 0.00 0.00 74 1008.0
20260503080330 52 199 0.0 0.0 0.00 0.00 0.00 74 1008.0
20260503080125 52 199 0.0 0.0 0.00 0.00 0.00 74 1008.0
20260503072807 52 199 0.0 0.0 0.00 0.00 0.00 73 1008.1
20260503072559 52 199 0.0 0.0 0.00 0.00 0.00 72 1008.1
20260503072355 52 199 0.0 0.0 0.00 0.00 0.00 72 1008.1
20260503071817 53 199 0.0 0.0 0.00 0.00 0.00 72 1008.1
20260503071606 53 199 0.0 0.0 0.00 0.00 0.00 72 1008.1
20260503071219 53 199 0.0 0.0 0.00 0.00 0.00 72 1008.1
20260503071008 53 199 0.0 0.0 0.00 0.00 0.00 72 1008.1
20260503070757 53 199 0.0 0.0 0.00 0.00 0.00 72 1008.1
20260503070544 53 199 0.0 0.0 0.00 0.00 0.00 72 1008.1
20260503070339 53 199 0.0 0.0 0.00 0.00 0.00 72 1008.2
20260503070127 53 199 0.0 0.0 0.00 0.00 0.00 72 1008.2
20260503060238 55 199 0.0 0.0 0.00 0.00 0.00 70 1008.3
20260503055013 55 199 0.0 0.0 0.00 0.00 0.00 70 1008.4
20260503054801 55 199 0.0 0.0 0.00 0.00 0.00 70 1008.4
20260503054550 55 199 0.0 0.0 0.00 0.00 0.00 70 1008.4
20260503054346 55 199 0.0 0.0 0.00 0.00 0.00 70 1008.4
20260503054135 55 199 0.0 0.0 0.00 0.00 0.00 69 1008.4
20260503053927 55 199 0.0 0.0 0.00 0.00 0.00 69 1008.5
20260503053720 56 199 0.0 0.0 0.00 0.00 0.00 69 1008.5
20260503053334 56 199 0.0 0.0 0.00 0.00 0.00 69 1008.5
20260503053130 56 199 0.0 0.0 0.00 0.00 0.00 69 1008.5
20260503052924 56 199 0.0 0.0 0.00 0.00 0.00 69 1008.5
20260503052714 56 199 0.0 0.0 0.00 0.00 0.00 69 1008.4
20260503052504 56 199 0.0 0.0 0.00 0.00 0.00 69 1008.5
20260503052251 56 199 0.0 0.0 0.00 0.00 0.00 69 1008.4
20260503052043 56 199 0.0 0.0 0.00 0.00 0.00 70 1008.5
20260503051837 56 199 0.0 0.0 0.00 0.00 0.00 70 1008.5
20260503051631 56 199 0.0 0.0 0.00 0.00 0.00 70 1008.5
20260503051422 56 199 0.0 0.0 0.00 0.00 0.00 70 1008.5
20260503050845 57 199 0.0 0.0 0.00 0.00 0.00 69 1008.5
20260503050640 57 199 0.0 0.0 0.00 0.00 0.00 70 1008.5
20260503050428 57 199 0.0 0.0 0.00 0.00 0.00 69 1008.5
20260503050220 57 199 0.0 0.0 0.00 0.00 0.00 69 1008.5
20260503050015 57 199 0.0 0.0 0.00 0.00 0.00 69 1008.5
20260503045813 57 199 0.0 0.0 0.00 0.00 0.00 69 1008.5
20260503045604 57 199 0.0 0.0 0.00 0.00 0.00 69 1008.5
20260503045400 57 199 0.0 0.0 0.00 0.00 0.00 69 1008.5
20260503045149 58 199 0.0 0.0 0.00 0.00 0.00 69 1008.4
20260503044947 58 199 0.0 0.0 0.00 0.00 0.00 68 1008.4
20260503044744 58 199 0.0 0.0 0.00 0.00 0.00 68 1008.4
20260503044531 58 199 0.0 0.0 0.00 0.00 0.00 68 1008.4
20260503044326 58 199 0.0 0.0 0.00 0.00 0.00 68 1008.3
20260503044120 58 199 0.0 0.0 0.00 0.00 0.00 68 1008.3
20260503043912 58 199 0.0 0.0 0.00 0.00 0.00 68 1008.3
20260503043707 58 199 0.0 0.0 0.00 0.00 0.00 68 1008.3
20260503043501 58 199 0.0 0.0 0.00 0.00 0.00 68 1008.3
20260503043251 59 199 0.0 0.0 0.00 0.00 0.00 68 1008.3
20260503043047 59 199 0.0 0.0 0.00 0.00 0.00 67 1008.3
20260503042838 59 199 0.0 0.0 0.00 0.00 0.00 67 1008.3
20260503042637 59 199 0.0 0.0 0.00 0.00 0.00 67 1008.3
20260503042427 59 199 0.0 0.0 0.00 0.00 0.00 67 1008.3
20260503042222 59 199 0.0 0.0 0.00 0.00 0.00 67 1008.3
20260503041827 60 199 0.0 0.0 0.00 0.00 0.00 66 1008.2
20260503041616 60 199 0.0 0.0 0.00 0.00 0.00 66 1008.3
20260503041412 60 199 0.0 0.0 0.00 0.00 0.00 66 1008.2
20260503041159 60 199 0.0 0.0 0.00 0.00 0.00 66 1008.2
20260503040953 60 199 0.0 0.0 0.00 0.00 0.00 65 1008.2
20260503040743 60 199 0.0 0.0 0.00 0.00 0.00 65 1008.2
20260503040532 61 199 0.0 0.0 0.00 0.00 0.00 65 1008.1
20260503040320 61 199 0.0 0.0 0.00 0.00 0.00 65 1008.0
20260503040108 61 199 0.0 0.0 0.00 0.00 0.00 65 1008.1
20260503035855 61 199 0.0 0.0 0.00 0.00 0.00 64 1008.1
20260503035507 61 199 0.0 0.0 0.00 0.00 0.00 64 1008.1
20260503035258 62 199 0.0 0.0 0.00 0.00 0.00 64 1008.1
20260503035045 62 199 0.0 0.0 0.00 0.00 0.00 63 1008.0
20260503034838 62 199 0.0 0.0 0.00 0.00 0.00 63 1008.0
20260503034625 62 199 0.0 0.0 0.00 0.00 0.00 63 1008.0
20260503034413 62 199 0.0 0.0 0.00 0.00 0.00 63 1007.9
20260503034202 63 199 0.0 0.0 0.00 0.00 0.00 63 1007.9
20260503033955 63 199 0.0 0.0 0.00 0.00 0.00 63 1008.0
20260503033750 63 199 0.0 0.0 0.00 0.00 0.00 63 1007.9
20260503033542 63 199 0.0 0.0 0.00 0.00 0.00 63 1007.9
20260503033338 63 199 0.0 0.0 0.00 0.00 0.00 63 1007.9
20260503033135 64 199 0.0 0.0 0.00 0.00 0.00 63 1008.0
20260503032922 64 199 0.0 0.0 0.00 0.00 0.00 63 1007.9
20260503032714 64 199 0.0 0.0 0.00 0.00 0.00 63 1007.9
20260503032508 64 199 0.0 0.0 0.00 0.00 0.00 63 1007.9
20260503032304 64 199 0.0 0.0 0.00 0.00 0.00 63 1007.7
20260503032100 65 199 0.0 0.0 0.00 0.00 0.00 62 1007.8
20260503031857 65 199 0.0 0.0 0.00 0.00 0.00 62 1007.8
20260503031654 65 199 0.0 0.0 0.00 0.00 0.00 62 1007.7
20260503031449 65 199 0.0 0.0 0.00 0.00 0.00 62 1007.7
20260503031239 65 199 0.0 0.0 0.00 0.00 0.00 62 1007.7
20260503030658 66 199 0.0 0.0 0.00 0.00 0.00 61 1007.6
20260503030455 66 199 0.0 0.0 0.00 0.00 0.00 61 1007.7
20260503030249 66 199 0.0 0.0 0.00 0.00 0.00 61 1007.7
20260503030047 66 199 0.0 0.0 0.00 0.00 0.00 61 1007.7
20260503025842 67 199 0.0 0.0 0.00 0.00 0.00 61 1007.6
20260503025635 67 199 0.0 0.0 0.00 0.00 0.00 61 1007.7
20260503025429 67 199 0.0 0.0 0.00 0.00 0.00 61 1007.6
20260503025219 67 199 0.0 0.0 0.00 0.00 0.00 60 1007.6
20260503024825 67 199 0.0 0.0 0.00 0.00 0.00 60 1007.6
20260503024430 68 199 0.0 0.0 0.00 0.00 0.00 60 1007.6
20260503024225 68 199 0.0 0.0 0.00 0.00 0.00 59 1007.6
20260503023829 68 199 0.0 0.0 0.00 0.00 0.00 58 1007.5
20260503023619 69 199 0.0 0.0 0.00 0.00 0.00 58 1007.4
20260503023418 69 199 0.0 0.0 0.00 0.00 0.00 58 1007.4
20260503023209 69 199 0.0 0.0 0.00 0.00 0.00 58 1007.4
20260503022820 69 199 0.0 0.0 0.00 0.00 0.00 58 1007.4
20260503022618 70 199 0.0 0.0 0.00 0.00 0.00 58 1007.4
20260503022224 70 199 0.0 0.0 0.00 0.00 0.00 58 1007.4
20260503022021 70 199 0.0 0.0 0.00 0.00 0.00 57 1007.4
20260503021818 70 199 0.0 0.0 0.00 0.00 0.00 57 1007.4
20260503021610 70 199 0.0 0.0 0.00 0.00 0.00 57 1007.4
20260503021214 70 199 0.0 0.0 0.00 0.00 0.00 56 1007.4
20260503021012 71 199 0.0 0.0 0.00 0.00 0.00 56 1007.4
20260503020809 71 199 0.0 0.0 0.00 0.00 0.00 55 1007.4
20260503020602 71 199 0.0 0.0 0.00 0.00 0.00 55 1007.4
20260503020351 71 199 0.0 0.0 0.00 0.00 0.00 55 1007.4
20260503020143 71 199 0.0 0.0 0.00 0.00 0.00 54 1007.4
20260503015937 71 199 0.0 0.0 0.00 0.00 0.00 54 1007.4
20260503015731 71 199 0.0 0.0 0.00 0.00 0.00 54 1007.4
20260503015518 72 199 0.0 0.0 0.00 0.00 0.00 53 1007.4
20260503015316 72 199 0.0 0.0 0.00 0.00 0.00 54 1007.4
20260503014929 72 199 0.0 0.0 0.00 0.00 0.00 53 1007.4
20260503014725 72 199 0.0 0.0 0.00 0.00 0.00 53 1007.5
20260503014338 72 199 0.0 0.0 0.00 0.00 0.00 53 1007.5
20260503013947 73 199 0.0 0.0 0.00 0.00 0.00 52 1007.4
20260503013738 73 199 0.0 0.0 0.00 0.00 0.00 51 1007.5
20260503013532 73 199 0.0 0.0 0.00 0.00 0.00 51 1007.4
20260503013323 73 199 0.0 0.0 0.00 0.00 0.00 52 1007.5
20260503013118 73 199 0.0 0.0 0.00 0.00 0.00 52 1007.6
20260503012917 74 199 0.0 0.0 0.00 0.00 0.00 51 1007.6
20260503012714 74 199 0.0 0.0 0.00 0.00 0.00 51 1007.6
20260503012513 74 199 0.0 0.0 0.00 0.00 0.00 51 1007.6
20260503012305 74 199 0.0 0.0 0.00 0.00 0.00 51 1007.5
20260503012055 74 199 0.0 0.0 0.00 0.00 0.00 48 1007.5
20260503011849 74 199 0.0 0.0 0.00 0.00 0.00 43 1007.5
20260503011637 74 199 0.0 1.0 0.00 0.00 0.00 44 1007.6
20260503011426 74 199 0.0 0.0 0.00 0.00 0.00 43 1007.6
20260503011219 74 199 0.0 0.0 0.00 0.00 0.00 43 1007.6
20260503011013 74 199 0.0 0.0 0.00 0.00 0.00 44 1007.6
20260503010806 74 199 0.0 0.0 0.00 0.00 0.00 45 1007.6
20260503010555 74 199 0.0 0.0 0.00 0.00 0.00 44 1007.6
20260503010342 74 199 0.0 0.0 0.00 0.00 0.00 43 1007.6
20260503010134 74 199 0.0 0.0 0.00 0.00 0.00 43 1007.7
20260503005922 74 199 0.0 0.0 0.00 0.00 0.00 43 1007.6
20260503005712 74 199 0.0 1.0 0.00 0.00 0.00 44 1007.7
20260503005506 74 199 0.0 1.0 0.00 0.00 0.00 44 1007.8
20260503005256 74 199 0.0 1.0 0.00 0.00 0.00 43 1007.8
20260503005054 74 199 0.0 1.0 0.00 0.00 0.00 43 1007.7
20260503004852 74 199 0.0 3.0 0.00 0.00 0.00 43 1007.8
20260503004642 74 199 0.0 3.0 0.00 0.00 0.00 43 1007.7
20260503004429 74 199 0.0 3.0 0.00 0.00 0.00 43 1007.8
20260503004225 74 198 0.0 3.0 0.00 0.00 0.00 44 1007.7
20260503004016 74 199 0.0 2.0 0.00 0.00 0.00 43 1007.8
20260503003810 74 199 0.0 0.0 0.00 0.00 0.00 45 1007.8
20260503003419 74 199 0.0 3.0 0.00 0.00 0.00 42 1007.8
20260503003206 74 199 0.0 3.0 0.00 0.00 0.00 43 1007.9
20260503002955 74 199 0.0 3.0 0.00 0.00 0.00 44 1007.9
20260503002747 74 199 0.0 3.0 0.00 0.00 0.00 44 1007.9
20260503002536 74 198 0.0 1.0 0.00 0.00 0.00 44 1007.9
20260503002326 74 198 0.0 1.0 0.00 0.00 0.00 44 1007.9
20260503001935 74 198 0.0 1.0 0.00 0.00 0.00 44 1007.9
20260503001548 74 198 0.0 0.0 0.00 0.00 0.00 44 1007.9
20260503001340 74 198 0.0 0.0 0.00 0.00 0.00 44 1007.9
20260503000942 74 211 0.0 3.0 0.00 0.00 0.00 45 1007.9
20260503000734 74 264 0.0 3.0 0.00 0.00 0.00 43 1007.9
20260503000522 74 210 0.0 1.0 0.00 0.00 0.00 44 1008.0
20260503000319 74 210 0.0 1.0 0.00 0.00 0.00 44 1008.0
20260502235924 74 210 0.0 1.0 0.00 0.00 0.00 42 1008.0
20260502235714 74 210 0.0 1.0 0.00 0.00 0.00 43 1008.1
20260502235503 74 210 0.0 0.0 0.00 0.00 0.00 43 1008.1
20260502235255 74 210 0.0 0.0 0.00 0.00 0.00 43 1008.2
20260502235052 74 210 0.0 2.0 0.00 0.00 0.00 42 1008.2
20260502234840 74 210 0.0 2.0 0.00 0.00 0.00 43 1008.2
20260502234637 74 210 1.0 1.0 0.00 0.00 0.00 44 1008.2
20260502234426 74 210 1.0 6.0 0.00 0.00 0.00 43 1008.2
20260502234224 74 210 1.0 6.0 0.00 0.00 0.00 42 1008.2
20260502234018 74 210 1.0 6.0 0.00 0.00 0.00 44 1008.2
20260502233806 74 210 1.0 6.0 0.00 0.00 0.00 43 1008.2
20260502233557 74 210 0.0 6.0 0.00 0.00 0.00 43 1008.2
20260502233347 74 211 0.0 4.0 0.00 0.00 0.00 44 1008.2
20260502233137 74 167 0.0 2.0 0.00 0.00 0.00 43 1008.2
20260502232933 74 150 0.0 2.0 0.00 0.00 0.00 43 1008.2
20260502232730 74 137 0.0 2.0 0.00 0.00 0.00 44 1008.1
20260502232524 74 210 0.0 0.0 0.00 0.00 0.00 44 1008.2
20260502232318 74 210 0.0 3.0 0.00 0.00 0.00 43 1008.2
20260502232108 74 210 0.0 3.0 0.00 0.00 0.00 43 1008.3
20260502231901 74 210 0.0 3.0 0.00 0.00 0.00 43 1008.3
20260502231656 75 210 0.0 1.0 0.00 0.00 0.00 43 1008.4
20260502231443 75 210 0.0 1.0 0.00 0.00 0.00 41 1008.4
20260502231231 75 210 0.0 6.0 0.00 0.00 0.00 42 1008.5
20260502231025 75 210 0.0 3.0 0.00 0.00 0.00 42 1008.5
20260502230637 75 220 0.0 3.0 0.00 0.00 0.00 42 1008.5
20260502230245 75 223 1.0 3.0 0.00 0.00 0.00 42 1008.5
20260502230044 76 223 1.0 3.0 0.00 0.00 0.00 42 1008.5
20260502225656 75 223 1.0 6.0 0.00 0.00 0.00 44 1008.6
20260502225454 75 232 1.0 6.0 0.00 0.00 0.00 42 1008.6
20260502225249 75 236 1.0 6.0 0.00 0.00 0.00 41 1008.6
20260502225042 76 211 0.0 4.0 0.00 0.00 0.00 42 1008.7
20260502224837 76 211 0.0 4.0 0.00 0.00 0.00 41 1008.8
20260502224632 76 211 0.0 5.0 0.00 0.00 0.00 41 1008.8
20260502224430 76 211 0.0 5.0 0.00 0.00 0.00 43 1008.8
20260502224220 76 211 0.0 5.0 0.00 0.00 0.00 42 1008.8
20260502224010 76 211 1.0 5.0 0.00 0.00 0.00 42 1008.9
20260502223804 76 211 1.0 5.0 0.00 0.00 0.00 40 1009.0
20260502223551 76 211 1.0 5.0 0.00 0.00 0.00 41 1009.0
20260502223349 76 211 1.0 5.0 0.00 0.00 0.00 41 1009.1
20260502223138 77 211 1.0 5.0 0.00 0.00 0.00 43 1009.1
20260502222744 77 213 0.0 5.0 0.00 0.00 0.00 40 1009.1
20260502222541 77 213 0.0 1.0 0.00 0.00 0.00 43 1009.1
20260502222328 77 213 0.0 2.0 0.00 0.00 0.00 41 1009.1
20260502222121 77 215 1.0 7.0 0.00 0.00 0.00 40 1009.2
20260502221915 77 215 1.0 7.0 0.00 0.00 0.00 39 1009.2
20260502221525 77 215 1.0 7.0 0.00 0.00 0.00 39 1009.3
20260502221132 77 257 1.0 7.0 0.00 0.00 0.00 40 1009.3
20260502220929 77 257 1.0 7.0 0.00 0.00 0.00 40 1009.4
20260502220721 78 257 1.0 7.0 0.00 0.00 0.00 37 1009.5
20260502220140 78 215 1.0 6.0 0.00 0.00 0.00 40 1009.6
20260502215928 78 228 1.0 6.0 0.00 0.00 0.00 40 1009.6
20260502215716 78 231 2.0 6.0 0.00 0.00 0.00 40 1009.7
20260502215509 78 230 2.0 6.0 0.00 0.00 0.00 40 1009.7
20260502215305 77 221 1.0 6.0 0.00 0.00 0.00 40 1009.7
20260502215100 77 244 2.0 5.0 0.00 0.00 0.00 39 1009.7
20260502214527 76 226 1.0 5.0 0.00 0.00 0.00 39 1009.7
20260502214136 77 218 0.0 5.0 0.00 0.00 0.00 41 1009.8
20260502213931 77 210 0.0 7.0 0.00 0.00 0.00 41 1009.9
20260502213727 77 213 0.0 7.0 0.00 0.00 0.00 41 1009.9
20260502213515 77 140 0.0 7.0 0.00 0.00 0.00 42 1009.8
20260502213126 77 219 1.0 7.0 0.00 0.00 0.00 41 1010.0
20260502212733 77 219 2.0 7.0 0.00 0.00 0.00 40 1010.1
20260502212530 77 216 2.0 7.0 0.00 0.00 0.00 41 1010.1
20260502212325 77 216 2.0 7.0 0.00 0.00 0.00 40 1010.0
20260502212123 77 194 1.0 6.0 0.00 0.00 0.00 42 1010.1
20260502211912 77 187 1.0 7.0 0.00 0.00 0.00 42 1010.1
20260502211707 77 197 1.0 7.0 0.00 0.00 0.00 39 1010.1
20260502211500 77 211 1.0 7.0 0.00 0.00 0.00 41 1010.1
20260502211255 77 259 1.0 7.0 0.00 0.00 0.00 40 1010.1
20260502211045 77 258 2.0 7.0 0.00 0.00 0.00 42 1010.1
20260502210843 77 210 2.0 7.0 0.00 0.00 0.00 41 1010.2
20260502210630 77 203 2.0 7.0 0.00 0.00 0.00 41 1010.2
20260502210243 77 207 1.0 7.0 0.00 0.00 0.00 40 1010.3
20260502205701 78 234 0.0 6.0 0.00 0.00 0.00 41 1010.3
20260502205449 78 210 1.0 6.0 0.00 0.00 0.00 41 1010.4
20260502205238 77 197 0.0 1.0 0.00 0.00 0.00 43 1010.4
20260502205036 77 195 0.0 6.0 0.00 0.00 0.00 43 1010.4
20260502204647 77 191 1.0 6.0 0.00 0.00 0.00 41 1010.5
20260502204440 77 201 1.0 6.0 0.00 0.00 0.00 39 1010.4
20260502204229 77 355 1.0 6.0 0.00 0.00 0.00 41 1010.4
20260502204024 77 36 2.0 10.0 0.00 0.00 0.00 41 1010.5
20260502203822 77 204 2.0 10.0 0.00 0.00 0.00 40 1010.5